Regional Weather Roundup
Issued by NWS

Home | Current Version | Previous Version | Graphics & Text | Print | Product List | Glossary On
Versions: 1 2 3 4 5 6 7 8 9 10 11 12 13 14 15 16 17 18 19 20 21 22 23 24 25 26 27 28 29 30 31 32 33 34 35 36 37 38 39 40 41 42 43 44 45 46 47 48 49 50
000
ASUS45 KBOU 290507
RWRCO

WEATHER ROUNDUP FOR COLORADO
NATIONAL WEATHER SERVICE DENVER/BOULDER CO
1100 PM MDT WED JUN 28 2017

NOTE: "FAIR" INDICATES FEW OR NO CLOUDS BELOW 12000 FEET WITH NO
SIGNIFICANT WEATHER AND/OR OBSTRUCTIONS TO VISIBILITY.

COZ001>005-013-030-031-290600-
...NORTHWEST COLORADO...

CITY           SKY/WX    TMP DP  RH WIND       PRES   REMARKS
CRAIG          MOCLDY    70  28  21 N5        29.99F
HAYDEN         FAIR      63  34  34 E13       30.01F
MEEKER         FAIR      72  28  19 NE17      29.97S
RABBIT EARS PA FAIR      48  30  49 W10G20    30.28S
STEAMBOAT SPGS FAIR      62  34  34 CALM      30.05R
WALDEN         FAIR      54  36  50 SE7       30.16F
$$

COZ006>008-011-290600-
...WEST CENTRAL VALLEYS...

CITY           SKY/WX    TMP DP  RH WIND       PRES   REMARKS
GRAND JUNCTION FAIR      78  14   9 E5        29.78R
MONTROSE       FAIR      67  16  14 E8        29.91F
EAGLE          FAIR      69  28  21 SE3       30.00R
RIFLE          FAIR      79  23  12 NW5       29.87F
DELTA          FAIR      74  17  11 E7        29.85S
NUCLA          NOT AVBL
$$

COZ017>023-064>068-290600-
...SOUTHWEST COLORADO...

CITY           SKY/WX    TMP DP  RH WIND       PRES   REMARKS
DURANGO        FAIR      61  19  19 N9        30.03S
CORTEZ         FAIR      57  22  25 E9        29.97R
PAGOSA SPRINGS FAIR      56  10  15 CALM      30.12S
TELLURIDE      FAIR      61   9  13 E3        30.24F
WOLF CREEK PAS FAIR      52   3  14 SW10G20   30.49S
$$

COZ009-010-012-014-032>034-037-058>063-290600-
...CENTRAL COLORADO...

CITY           SKY/WX    TMP DP  RH WIND       PRES   REMARKS
ASPEN          FAIR      60  27  28 SW5       30.06R
BUENA VISTA    FAIR      58  17  19 CALM      30.09S
COPPER MTN     CLOUDY    54  12  19 W14       30.40S
BERTHOUD PASS  FAIR      43  30  61 W8        30.44S
COTTONWOOD PAS FAIR      64  -9   5 SW6       30.24F
GUNNISON       FAIR      55  30  38 N7        30.09R
KREMMLING      FAIR      70  30  23 N5        30.08S
LEADVILLE      FAIR      52  18  26 CALM      30.22S
MONARCH PASS   FAIR      50   7  17 SW23      30.51S
SALIDA         FAIR      67  12  12 W8        30.12F
SUNLIGHT       MOCLDY    54  14  20 W6G18     30.33S
WILKERSON PASS FAIR      54  19  26 CALM      30.38F
$$

COZ069>075-290600-
...SAN LUIS VALLEY/SANGRE DE CRISTO MOUNTAINS...

CITY           SKY/WX    TMP DP  RH WIND       PRES   REMARKS
ALAMOSA        FAIR      65  13  13 W15       30.08R
DEL NORTE      FAIR      62  11  13 SW3       30.12S
LA VETA PASS   FAIR      57  16  19 S20G29    30.38S
SAGUACHE       FAIR      64  14  14 N9        30.10S
$$

COZ035-036-038>040-290600-
...NORTHERN COLORADO FRONT RANGE...

CITY           SKY/WX    TMP DP  RH WIND       PRES   REMARKS
DENVER INTL AP MOCLDY    65  46  50 SE10      29.87R
DMNS CITY PARK   N/A     68  47  48 S6        29.89R
AURORA         PTCLDY    70  44  39 SE20      29.89S
FRONT RANGE AP FAIR      70  46  43 SE14G24   29.89S
ERIE MUNI ARPT FAIR      67  44  42 NE6       29.88R
BOULDER MUN AP FAIR      68  41  37 NE3       29.88S
CENTENNIAL     FAIR      70  44  39 S13       29.91S
BROOMFIELD     FAIR      72  41  33 N3        29.91S
FORT COLLINS   FAIR      75  38  26 NE15G21   29.91R
LONGMONT       FAIR      74  45  35 N10G16    29.90R
$$

COZ041-046-047-076>085-087-088-290600-
...PIKES PEAK/PALMER DIVIDE AND SOUTHERN FOOTHILLS...

CITY           SKY/WX    TMP DP  RH WIND       PRES   REMARKS
COLO. SPRINGS  FAIR      72  43  35 NE8       29.95R
A. F. ACADEMY  FAIR      62  46  56 N6        29.97R
SCHRIEVER AFB  FAIR      68  43  39 NE12G18   29.95S
CHEYENNE MTN   FAIR      73  35  25 NW9       29.95S
ELLICOTT       FAIR     N/A N/A N/A E20G25    29.92F THUNDER
FALCON           N/A     65  42  43 NE8       30.01S
FORT CARSON    FAIR      73  41  31 N10       29.91R
LIMON          TSTM      63  55  75 NE13      29.94R
MONUMENT HILL  FAIR      59  41  51 SE9       30.03F
CANON CITY     CLEAR     75  39  27 CALM      29.85S
WALSENBURG     FAIR      75  21  13 W13       29.91S
TRINIDAD       FAIR      69  25  19 W12       29.88S
$$

COZ042>045-048>051-090-091-290600-
...NORTHEAST COLORADO...

CITY           SKY/WX    TMP DP  RH WIND       PRES   REMARKS
GREELEY ARPT   LGT RAIN  75  48  38 NW3       29.90R
AKRON          FAIR      70  48  45 S20G31    29.83F
BURLINGTON     FAIR      73  53  49 E9        29.82F
WRAY           TSTM      75  46  35 SW16G25   29.86R
YUMA           FAIR      68  50  52 S12G25    29.82F
STERLING       FAIR      70  48  46 CALM      29.80F
HOLYOKE        NOT AVBL
FORT MORGAN    FAIR      70  45  41 SE12      29.82F
$$

COZ086-089-092>099-290600-
...SOUTHEAST COLORADO...

CITY           SKY/WX    TMP DP  RH WIND       PRES   REMARKS
PUEBLO         FAIR      79  44  28 NE16      29.77R
LA JUNTA       FAIR      73  51  46 NE8       29.73F
LAMAR          FAIR      76  57  51 E15       29.71F
SPRINGFIELD      N/A     74  56  53 S20       29.76F
$$



USA.gov is the U.S. government's official web portal to all federal, state and local government web resources and services.